Regional Weather Roundup
Issued by NWS

Home | Current Version | Previous Version | Text Only | Print | Product List | Glossary On
Versions: 1 2 3 4 5 6 7 8 9 10 11 12 13 14 15 16 17 18 19 20 21 22 23 24 25 26 27
000
ASUS42 KTBW 291916
RWRFL
FLORIDA REGIONAL WEATHER ROUNDUP
NATIONAL WEATHER SERVICE TAMPA BAY RUSKIN FL
300 PM EDT FRI APR 29 2016

NOTE: "FAIR" INDICATES FEW OR NO CLOUDS BELOW 12,000 FEET WITH NO
SIGNIFICANT WEATHER AND/OR OBSTRUCTIONS TO VISIBILITY.

FLZ001>010-012>015-112-114-115-292000-
PANHANDLE FLORIDA

CITY           SKY/WX    TMP DP  RH WIND       PRES   REMARKS
PENSACOLA      SUNNY     84  65  52 S15       29.95F
PENSACOLA NAS  MOSUNNY   81  71  71 S9        29.94F
MILTON NAS     MOSUNNY   87  65  47 S14       29.94
CRESTVIEW      MOSUNNY   89  63  41 S10G20    29.95F
DUKE FIELD     MOSUNNY   87  63  44 S14       29.93F
VALPARAISO     MOSUNNY   82  69  63 S14       29.96F
MARY ESTHER    MOSUNNY   82  69  65 S10       29.95F
PANAMA CITY    FAIR      85  71  63 S13       29.94F
TYNDALL AFB    MOSUNNY   81  74  79 SW12      29.95F
APALACHICOLA   MOSUNNY   81  73  76 S10       29.97S

STATION/POSITION SKY/WX   TEMP    WIND        PRES    WAVE   SWELL
                          AIR SEA DIR/SP/G            HT/PER HT/PER
                          (F)     (DEG/KT/KT) (MB)    (FT/S) (FT/S)
30.1N   87.6W              75 74  140/  8/ 10 1013.2F   2/ 6   2/ 6
29.2N   88.2W              75 74  130/ 10/ 10 1013.5F
28.8N   86.0W              78 79  170/ 10/ 12 1014.4F   2/ 6   2/ 6
PANAMA CITY BEAC           75 77  180/ 11/ 12 1015.0F
TOWER C                    73     200/  3/  3 1015.5F
28.5N   84.5W              76 76  170/  6/  8 1014.4F   2/ 5   2/ 5

$$
FLZ011-016>038-118-127-128-134-139-239-292000-
NORTH FLORIDA

CITY           SKY/WX    TMP DP  RH WIND       PRES   REMARKS
MARIANNA       PTSUNNY   87  69  54 SE8       29.94F
TALLAHASSEE    PTSUNNY   89  64  43 CALM      29.95F
LIVE OAK       PTSUNNY   90  66  45 NW3       29.97S
CROSS CITY       N/A     89  71  55 W10       29.94F HX  95
LAKE CITY      FAIR      84  64  51 CALM      29.95S
GAINESVILLE    MOSUNNY   88  64  44 MISG      29.94F
WILLISTON      FAIR      90  68  48 NE5       29.94F
PALATKA        FAIR      88  88 100 SE3       29.95S HX 120
MAYPORT NAS    MOSUNNY   82  71  69 E9        29.95F
JACKSONVILLE   MOSUNNY   87  63  44 VRB3      29.94S
JAX NAS        MOSUNNY   90  56  31 SE7       29.95F
JAX CECIL      PTSUNNY   88  66  48 N6        29.96S
FERNANDINA BEA FAIR      86  68  54 E7        29.95S
ST AUGUSTINE   MOSUNNY   81  70  69 E8        29.96F
PALM COAST     SUNNY     82  72  69 E9        29.96S

STATION/POSITION SKY/WX   TEMP    WIND        PRES    WAVE   SWELL
                          AIR SEA DIR/SP/G            HT/PER HT/PER
                          (F)     (DEG/KT/KT) (MB)    (FT/S) (FT/S)
SHELL POINT                80     170/  8/ 11 1013.7
KEATON BEACH               78     250/ 10/ 12 1014.3F
CEDAR KEY                  80     240/  6/  8 1014.8F
FERNANDINA                 85 73  130/  5/  7 1014.4F
30.7N   81.3W                 75                N/A     1/10
MAYPORT                    79 71   90/  7/  9 1014.5F
ST AUGUSTINE               74 72   80/  6/  7 1015.2F

$$
FLZ040-043>046-052-053-057-058-063-144-292000-
INTERIOR CENTRAL FLORIDA

CITY           SKY/WX    TMP DP  RH WIND       PRES   REMARKS
OCALA          MOSUNNY   90  63  40 SW6       29.95F
THE VILLAGES     N/A     90  70  51 SE7       29.84F HX  95
LEESBURG       SUNNY     88  62  41 S7        29.95F
SANFORD        SUNNY     88  62  41 MISG      29.94F
ORLANDO EXEC   MOSUNNY   90  65  43 VRB6      29.94F
ORLANDO INTL   MOSUNNY   88  64  44 SE7       29.94F
KISSIMMEE      MOSUNNY   88  66  48 S5        29.95F
WINTER HAVEN   MOSUNNY   89  63  41 VRB5      29.95F
LAKELAND       MOSUNNY   90  68  48 CALM      29.94F
BARTOW         MOSUNNY   90  61  37 CALM      29.94F
OKEECHOBEE     SUNNY     86  63  45 CALM      29.96F

$$
FLZ041-047-054-059-064-141-147-292000-
EAST CENTRAL FLORIDA

CITY           SKY/WX    TMP DP  RH WIND       PRES   REMARKS
ORMOND BEACH   SUNNY     79  72  78 E12       29.96F FOG
DAYTONA BEACH  MOSUNNY   83  71  67 E9        29.96F
DELAND           N/A     86  64  48 CALM      29.95S
NEW SMYRNA BEA MOSUNNY   79  70  73 NE12      29.97F
JFK SPACE CTR  SUNNY     84  71  63 E10       29.94F
TITUSVILLE     MOSUNNY   88  61  40 NE18      29.95F
CAPE CANAVERAL SUNNY     83  71  66 VRB7      29.94F
PATRICK AFB    SUNNY     83  71  67 SE13      29.94F
MELBOURNE      SUNNY     84  70  62 E12       29.95F
VERO BEACH     SUNNY     85  67  54 E13       29.95F
FT PIERCE      SUNNY     83  67  58 E12       29.95F
STUART         MOSUNNY   86  72  62 E12G17    29.97F

STATION/POSITION SKY/WX   TEMP    WIND        PRES    WAVE   SWELL
                          AIR SEA DIR/SP/G            HT/PER HT/PER
                          (F)     (DEG/KT/KT) (MB)    (FT/S) (FT/S)
28.5N   80.2W              77 79  160/  6/  6 1015.2F
28.9N   78.5W              77 77  210/  8/ 10 1015.3F
TRIDENT PIER               82 79   80/  9/ 12 1014.7F
28.4N   80.5W                 78                N/A     1/11
27.5N   80.2W                 80                N/A     2/11   2/11

$$
FLZ050-056-061-142-242-148-248-149-249-151-251-155-255-
160-260-292000-
WEST CENTRAL FLORIDA

CITY           SKY/WX    TMP DP  RH WIND       PRES   REMARKS
CRYSTAL RIVER  FAIR      88  70  55 W7        29.94F
INVERNESS      FAIR      90  68  48 CALM      29.94F
BROOKSVILLE    SUNNY     90  62  39 E7        29.94F
ZEPHYRHILLS    FAIR      91  58  33 S6        29.94F
CLEARWATER AIR FAIR      82  70  65 W6        29.94F
ST PETE CLEARW SUNNY     91  61  36 N6        29.93F
TAMPA INTL     MOSUNNY   88  61  40 W10       29.94F
TAMPA EXEC     MOSUNNY   93  63  36 CALM      29.93F
PLANT CITY     SUNNY     91  64  40 CALM      29.95F
MACDILL AFB    SUNNY     91  61  36 W7        29.93F
PETER O KNIGHT SUNNY     93  61  33 SW7       29.93F
ST PETERSBURG  SUNNY     90  58  33 E3        29.92F
SARASOTA       SUNNY     85  68  56 W13       29.92F
VENICE         NOT AVBL

STATION/POSITION SKY/WX   TEMP    WIND        PRES    WAVE   SWELL
                          AIR SEA DIR/SP/G            HT/PER HT/PER
                          (F)     (DEG/KT/KT) (MB)    (FT/S) (FT/S)
27.3N   84.2W                 80                N/A     2/ 6
CLEARWATER BEACH           78 79  250/  7/  8 1014.7F
MIDDLE TAMPA BAY NOT AVBL
VENICE                     79 81  230/  9/ 10 1013.6F

$$
FLZ066-069-070-075>078-162-262-165-265-292000-
SOUTHWEST FLORIDA AND KEYS

CITY           SKY/WX    TMP DP  RH WIND       PRES   REMARKS
PUNTA GORDA    CLOUDY    88  72  58 W12       29.94F
FT MYERS       PTSUNNY   86  69  56 W9        29.92F
SOUTHWEST INTL PTSUNNY   87  65  47 S6        29.92F
NAPLES         MOSUNNY   85  72  65 SW15      29.93F
MARCO ISLAND   CLOUDY    84  70  61 SW10G16   29.94F
MARATHON       SUNNY     86  71  60 VRB7      29.95F
KEY WEST NAS   PTSUNNY   85  72  65 SE12      29.95F
KEY WEST INTL  SUNNY     84  73  69 E12       29.95F

STATION/POSITION SKY/WX   TEMP    WIND        PRES    WAVE   SWELL
                          AIR SEA DIR/SP/G            HT/PER HT/PER
                          (F)     (DEG/KT/KT) (MB)    (FT/S) (FT/S)
NAPLES                        83              1014.4F
26.0N   85.6W              80 80  110/ 14/ 16 1014.1F   3/ 5   2/ 7
DRY TORTUGAS               79     100/  9/ 10 1014.0F
SAND KEY                   80     120/ 11/ 13 1014.7F
LONG KEY                   80 83  120/  8/ 10 1014.7F
MOLASSES REEF              79 80  110/  6/  7 1015.5

$$
FLZ067-068-071>074-168-172>174-292000-
SOUTHEAST FLORIDA

CITY           SKY/WX    TMP DP  RH WIND       PRES   REMARKS
W PALM BEACH   MOSUNNY   84  66  54 E13       29.97F
BOCA RATON     MOSUNNY   84  68  58 SE14      29.95F
FT LAUDER-EXEC MOSUNNY   86  63  45 SE13G18   29.95F
FT LAUDERDALE  MOSUNNY   85  66  53 E13G20    29.95F
POMPANO BEACH  MOSUNNY   81  68  64 E14       29.95F
PEMBROKE PINES SUNNY     88  64  44 E13       29.96F
OPA LOCKA      SUNNY     88  64  44 SE13      29.95F
MIAMI          MOSUNNY   86  67  52 SE12G21   29.95F
WEST KENDALL   SUNNY     86  66  51 SE12      29.95F
HOMESTEAD      SUNNY     85  67  55 E12       29.95F

STATION/POSITION SKY/WX   TEMP    WIND        PRES    WAVE   SWELL
                          AIR SEA DIR/SP/G            HT/PER HT/PER
                          (F)     (DEG/KT/KT) (MB)    (FT/S) (FT/S)
PORT EVERGLADES            83     110/  4/  7 1015.4F
VIRGINIA KEY               79 82  100/  6/  9 1015.5F
LAKE WORTH                 78 80  120/  8/ 10 1015.1F
SETTLEMENT POINT           80        CALM     1015.9F

$$





USA.gov is the U.S. government's official web portal to all federal, state and local government web resources and services.